Regional Weather Roundup
Issued by NWS Sterling, VA

Home | Current Version | Previous Version | Text Only | Print | Product List | Glossary Off
Versions: 1 2 3 4 5 6 7 8 9 10 11 12 13 14 15 16 17 18 19 20 21 22 23 24 25 26 27 28

000
ASUS41 KLWX 191711
RWRLWX

REGIONAL WEATHER ROUNDUP
NATIONAL WEATHER SERVICE BALTIMORE MD/WASHINGTON DC
100 PM EDT THU OCT 19 2017

Note: "FAIR" indicates few or no clouds below 12,000 feet
with no significant weather and/or obstructions to visibility.
 TC=TEMPERATURE CELSIUS

 * =Non NWS site. Station does not report precipitation (e.g. rain,
    snow, etc.), thunder, or fog.

DCZ001-MDZ009-015-VAZ040>042-051-053>054-191800-
WASHINGTON METRO

CITY           SKY/WX    TMP DP  RH WIND       PRES   REMARKS
WASHINGTON NAT SUNNY     68  46  45 S10       30.24F
DULLES         SUNNY     67  47  48 S5        30.23F
ANDREWS AFB    SUNNY     69  43  39 S6        30.23F
FT BELVOIR     SUNNY     67  45  44 SW5       30.24F
QUANTICO       SUNNY     68  49  50 S8        30.25F
COLLEGE PARK*  SUNNY     67  44  42 S6        30.24F
LEESBURG*      SUNNY     70  48  46 CALM      30.24F
MANASSAS*      SUNNY     69  46  43 S5        30.24F
GAITHERSBURG*  SUNNY     69  46  43 S5        30.25F

$$

MDZ006>007-011-014-191800-
BALTIMORE METRO

CITY           SKY/WX    TMP DP  RH WIND       PRES   REMARKS
BWI AIRPORT    MOSUNNY   68  43  40 SW7       30.23F
MD SCIENCE CTR   N/A     70  44  39 MISG      30.23F
MARTIN STATE   MOSUNNY   68  48  49 S9        30.25F
ANNAPOLIS      SUNNY     70  49  47 S7        30.24F
FORT MEADE*    SUNNY     68  45  42 W9        30.26F

$$

MDZ012-015-019>023-191800-
MARYLAND EASTERN SHORE

CITY           SKY/WX    TMP DP  RH WIND       PRES   REMARKS
OCEAN CITY     SUNNY     67  56  67 S9        30.25F
SALISBURY      SUNNY     70  50  49 W13       30.25F
CAMBRIDGE*     SUNNY     68  48  49 S9        30.26F
EASTON*        SUNNY     68  48  49 SW10      30.29F

$$

MDZ017>025-191800-
SOUTHERN MARYLAND

CITY           SKY/WX    TMP DP  RH WIND       PRES   REMARKS
PATUXENT RIVER MOSUNNY   69  49  48 SW8       30.25F
ST INIGOES     SUNNY     69  51  52 SW7       30.25F
LEONARDTOWN*   NOT AVBL

$$

MDZ003>005-191800-
NORTH CENTRAL MARYLAND

CITY           SKY/WX    TMP DP  RH WIND       PRES   REMARKS
FREDERICK*     SUNNY     72  43  35 W6        30.25F
HAGERSTOWN APT SUNNY     68  44  42 VRB6      30.22F
WESTMINSTER*   SUNNY     66  45  45 SW3       30.23F

$$

MDZ501>502-191800-
WESTERN MARYLAND

CITY           SKY/WX    TMP DP  RH WIND       PRES   REMARKS
OAKLAND*       SUNNY     59  39  47 SW8G21    30.25F
CUMBERLAND*    SUNNY     68  46  45 S3        30.25F

$$

VAZ025>031-191800-
SHENANDOAH VALLEY

CITY           SKY/WX    TMP DP  RH WIND       PRES   REMARKS
WINCHESTER*    SUNNY     66  43  42 SW6       30.23F
FRONT ROYAL*   SUNNY     72  45  37 S5        30.21F
LURAY*         SUNNY     70  43  37 S5        30.24F
NEW MARKET*    SUNNY     70  39  33 SW5       30.24F
STAUNTON*      SUNNY     70  39  31 S7        30.27F
WAYNESBORO*    SUNNY     69  40  34 CALM      30.26F

$$

WVZ021-048>050-054>055-191800-
EASTERN WEST VIRGINIA PANHANDLE

CITY           SKY/WX    TMP DP  RH WIND       PRES   REMARKS
MARTINSBURG    SUNNY     69  46  43 VRB6      30.21F
PETERSBURG*    SUNNY     72  42  33 CALM      30.21F

$$

VAZ036>039-050-191800-
CENTRAL FOOTHILLS

CITY           SKY/WX    TMP DP  RH WIND       PRES   REMARKS
CHARLOTTESVILL SUNNY     70  46  42 VRB5      30.24F
CULPEPER*      SUNNY     70  43  36 S3        30.24F
ORANGE*        SUNNY     70  43  37 SW3       30.24F
GORDONSVILLE*  SUNNY     69  46  44 CALM      30.23F
WARRENTON*     SUNNY     70  41  34 S5        30.23F

$$

VAZ055>057-191800-
NORTH AND CENTRAL PIEDMONT

CITY           SKY/WX    TMP DP  RH WIND       PRES   REMARKS
FREDERICKSBRG* SUNNY     71  44  38 SW6       30.24F
STAFFORD*      SUNNY     70  44  39 S5        30.28F

$$

NCZ024-NYZ072-PAZ021-071-VAZ022-071-191800-
OTHER REGIONAL OBSERVATIONS

CITY           SKY/WX    TMP DP  RH WIND       PRES   REMARKS
NEW YORK CITY  SUNNY     69  43  38 VRB5      30.21F
PHILADELPHIA   MOSUNNY   68  43  40 SW13      30.23F
PITTSBURGH     MOSUNNY   66  46  48 SW9G18    30.21F
ROANOKE        SUNNY     69  44  40 CALM      30.30F
RICHMOND       SUNNY     69  44  40 SW9       30.26F
RALEIGH        MOSUNNY   70  52  52 W6        30.29F

$$

ANZ530>537-191800-
MARINE OBSERVATIONS

STATION/POSITION TIME  TEMP    WIND        PRES
                       AIR SEA DIR/SP/G
                 (UTC) (F)     (DEG/KT/KT) (MB)
THOMAS PT LIGHT  1700   63 68  180/  9/ 10   N/A
BALT KEY BRIDGE  1648   66     240/  7/  8 1023.7F
COVE POINT       1648   66     210/  5/  7 1025.1F
LEWISETTA        1648   66 65  280/  6/  9 1024.4F
SOLOMONS ISLAND  1648   67 69  230/  6/  8 1024.0F
PINEY POINT      1642          250/  3/  4   N/A

$$





USA.gov is the U.S. government's official web portal to all federal, state and local government web resources and services.